Location: Freistadt
(48.5112°N, 14.5013°E)
Time: 09:17:57
(UTC+02:00)

PCSat - Pass Details

Date: 29 March 2023
Orbit: 783 x 794 km, 67.1° (Epoch: 29 May)

Event Time Altitude Azimuth Distance (km) Brightness Sun altitude
Rises 21:29:17 0° 313° (NW) 3,294 14.3 -19.8°
Reaches altitude 10° 21:34:11 10° 352° (N) 2,368 12.5 -20.5°
Maximum altitude 21:35:18 11° 4° (N) 2,328 12.3 -20.7°
Drops below altitude 10° 21:36:24 10° 16° (NNE) 2,369 12.2 -20.8°
Enters shadow 21:40:39 - 51° (NE) 3,125 12.5 -21.4°
